Location: Doussal
(55.6167°N, 116.8333°W)
Time: 00:10:13
(UTC+00:00)

AIST 2D - Visible Passes

Search period start: 07 December 2023 00:00
Search period end: 17 December 2023 00:00
Orbit: 350 x 354 km, 97.0° (Epoch: 06 December)

Date Brightness Start Highest point End Pass type
(mag) Time Alt. Az. Time Alt. Az. Time Alt. Az.
09 Dec ? 14:57:00 10° E 14:58:42 15° ENE 15:00:25 10° NNE visible
12 Dec ? 14:44:08 10° ENE 14:45:00 11° ENE 14:45:52 10° NE visible
13 Dec ? 15:08:09 10° ESE 15:10:14 19° ENE 15:12:20 10° NNE visible
16 Dec ? 14:53:50 10° E 14:55:21 14° ENE 14:56:52 10° NNE visible
